Weather History for K9V9 - March, 2013

Change the Weather History Date:

Monday, March 25, 2013

  Actual Average Record
Temperature  
Mean Temperature 22 °F -  
Max Temperature 28 °F 47 °F 75 °F (2007)
Min Temperature 17 °F 26 °F 6 °F (2002)
Degree Days  
Heating Degree Days 42    
Moisture  
Dew Point 13 °F    
Average Humidity 69    
Maximum Humidity 81    
Minimum Humidity 51    
Precipitation  
Precipitation 0.01 in - - ()
Sea Level Pressure  
Sea Level Pressure 30.38 in    
Wind  
Wind Speed 12 mph (NNW)    
Max Wind Speed 16 mph    
Max Gust Speed 21 mph    
Averages and records for this station are not official NWS values.
T = Trace of Precipitation, MM = Missing Value Source: NWS Daily Summary

Daily Weather History Graph

Daily Weather History Graph

Search for Another Location

Airport or City:

Trip Planner

Search our weather history database for the weather conditions in past years. The results will help you decide how hot, cold, wet, or windy it might be!

Date:

Astronomy

Mar. 25, 2013 Rise Set
Actual Time 7:30 AM CDT 7:56 PM CDT
Civil Twilight 7:02 AM CDT 8:24 PM CDT
Nautical Twilight 6:28 AM CDT 8:58 PM CDT
Astronomical Twilight 5:53 AM CDT 9:33 PM CDT
Moon 6:27 PM CDT (3/25) 6:17 AM CDT (3/25)
Length of Visible Light 13h 22m
Length of Day
12h 25m
Waxing Gibbous, 96% of the Moon is Illuminated
Mar 25
Waxing Gibbous
Mar 27
Full
Apr 2
Last Quarter
Apr 10
New
Apr 18
First Quarter

Hourly Weather History & Observations

Time (CDT) Temp. Windchill Dew Point Humidity Pressure Visibility Wind Dir Wind Speed Gust Speed Precip Events Conditions
12:52 AM 23.0 °F 13.1 °F 17.1 °F 78% 30.32 in - NNW 9.2 mph - N/A   Unknown
1:52 AM 24.1 °F 11.5 °F 17.1 °F 75% 30.31 in - NNW 15.0 mph - N/A   Unknown
2:52 AM 23.0 °F 9.6 °F 16.0 °F 74% 30.32 in - North 16.1 mph - N/A   Unknown
3:52 AM 21.0 °F 8.6 °F 15.1 °F 78% 30.33 in - NNW 12.7 mph - N/A   Unknown
4:52 AM 19.9 °F 7.9 °F 15.1 °F 81% 30.33 in - NNW 11.5 mph - 0.01 in   Unknown
5:52 AM 19.0 °F 5.0 °F 14.0 °F 81% 30.34 in - NW 15.0 mph - N/A   Unknown
6:52 AM 18.0 °F 5.4 °F 12.0 °F 78% 30.36 in - NW 11.5 mph - N/A   Unknown
7:52 AM 17.1 °F 4.3 °F 12.0 °F 81% 30.38 in - NW 11.5 mph - N/A   Unknown
8:52 AM 19.0 °F 5.0 °F 12.9 °F 77% 30.39 in - NNW 15.0 mph 20.7 mph N/A   Unknown
9:52 AM 19.9 °F 6.7 °F 14.0 °F 78% 30.40 in - NNW 13.8 mph - N/A   Unknown
10:52 AM 23.0 °F 11.1 °F 15.1 °F 72% 30.40 in - NNW 12.7 mph 19.6 mph N/A   Unknown
11:52 AM 24.1 °F 13.1 °F 14.0 °F 65% 30.41 in - NNW 11.5 mph - N/A   Unknown
12:52 PM 25.0 °F 12.2 °F 14.0 °F 63% 30.41 in - NNW 16.1 mph - N/A   Unknown
1:52 PM 27.0 °F 15.6 °F 15.1 °F 61% 30.40 in - North 13.8 mph - N/A   Unknown
2:52 PM 27.0 °F 16.1 °F 16.0 °F 63% 30.40 in - North 12.7 mph - N/A   Unknown
3:52 PM 28.0 °F 17.5 °F 12.9 °F 53% 30.39 in - NNW 12.7 mph 20.7 mph N/A   Unknown
4:52 PM 27.0 °F 15.6 °F 12.0 °F 53% 30.39 in - NNW 13.8 mph - N/A   Unknown
5:52 PM 27.0 °F - 12.0 °F 53% 30.38 in - North - - N/A   Unknown
6:52 PM 28.0 °F 18.6 °F 12.0 °F 51% 30.39 in - North 10.4 mph - N/A   Unknown
7:52 PM 24.1 °F 14.4 °F 12.0 °F 60% 30.41 in - NNE 9.2 mph - N/A   Unknown
8:52 PM 19.9 °F 12.1 °F 10.9 °F 68% 30.41 in - NNE 5.8 mph - N/A   Unknown
9:52 PM 18.0 °F 11.1 °F 10.9 °F 74% 30.42 in - NNE 4.6 mph - N/A   Unknown
10:52 PM 18.0 °F - 10.9 °F 74% 30.42 in - Calm Calm - N/A   Unknown
11:52 PM 17.1 °F 11.7 °F 10.0 °F 74% 30.41 in - ENE 3.5 mph - N/A   Unknown